Flag for U.S.A. Weather past 2 weeks in Macon, Georgia, U.S.A.

Now
44 °F

Sunny.


Feels Like: 38 °F
Forecast: 37 / 55 °F
Wind: 12 mph from Northwest

Location: Middle Georgia Regional Airport

Current Time: Mar 28, 2015 at 10:22:44 AM

Latest Report: Mar 28, 2015 at 9:53 AM


Visibility: 10 mi

Pressure: 30.15 "Hg

Humidity: 60%

Dew point: 31 °F

Location of MaconLocation

Historic Weather in Macon — Graph

°F

Macon temperature yesterday

Maximum temperature yesterday: 64 °F (at 12:53 AM)
Minimum temperature yesterday: 49 °F (at 11:53 PM)
Average temperature yesterday: 59 °F

Past Weeks' High & Low Weather Summary

 TemperatureHumidityPressure
High84 °F (Mar 17, 3:53 PM)100% (Mar 14, 12:53 AM)30.36 "Hg (Mar 14, 12:53 AM)
Low37 °F (Mar 28, 6:53 AM)15% (Mar 16, 2:53 PM)29.69 "Hg (Mar 27, 5:53 AM)
Average60 °F77%30.05 "Hg
* Reported Mar 13 8:53 AM — Mar 28 8:53 AM, Macon, Weather by CustomWeather, © 2015

Note: Actual official high and low records may vary slightly from our data, if they occured in-between our weather recording intervals... More about our weather records

Advertising

Macon weather history for previous 24 hours

 ConditionsComfort  
Time TempWeatherWind HumidityBarometerVisibility
8:53 AM
Sat, Mar 28
41 °FSunny.12 mph74%30.13 "Hg10 mi
7:53 AM37 °FClear.6 mph86%30.09 "Hg10 mi
6:53 AM37 °FClear.7 mph86%30.07 "Hg10 mi
5:53 AM38 °FClear.6 mph83%30.04 "Hg10 mi
4:53 AM39 °FClear.6 mph76%30.02 "Hg10 mi
3:53 AM41 °FClear.7 mph70%30.01 "Hg10 mi
2:53 AM44 °FClear.8 mph60%30.02 "Hg10 mi
1:53 AM45 °FClear.8 mph58%30.02 "Hg10 mi
12:53 AM47 °FClear.10 mph52%30.01 "Hg10 mi
11:53 PM
Fri, Mar 27
49 °FClear.17 mph46%29.99 "Hg10 mi
10:53 PM52 °FPassing clouds.12 mph41%29.96 "Hg10 mi
9:53 PM54 °FPassing clouds.16 mph35%29.92 "Hg10 mi
8:53 PM56 °FPassing clouds.9 mph33%29.87 "Hg10 mi
7:53 PM58 °FSunny.12 mph30%29.83 "Hg10 mi
6:53 PM61 °FSunny.13 mph27%29.80 "Hg10 mi
5:53 PM63 °FSunny.17 mph30%29.78 "Hg10 mi
4:53 PM64 °FSunny.15 mph33%29.77 "Hg10 mi
3:53 PM64 °FSunny.20 mph33%29.78 "Hg10 mi
2:53 PM62 °FSunny.13 mph44%29.79 "Hg10 mi
1:53 PM59 °FScattered clouds.15 mph54%29.81 "Hg10 mi
12:53 PM57 °FOvercast.16 mph62%29.82 "Hg10 mi
11:53 AM56 °FOvercast.16 mph67%29.81 "Hg10 mi
10:53 AM54 °FOvercast.10 mph80%29.80 "Hg10 mi
Weather by CustomWeather, © 2015

See weather overviewHow to use our weather pages